This is the latest recevied weather packets stored in our database for station/object SP9MUF-14. If no packets are shown the sender has not sent any weather packets the latest 10 day(s).
| Time | Temp. | Humidity | Pressure | Rain* | Wind** | Luminosity | Snow |
|---|---|---|---|---|---|---|---|
| 1787844079 | 26.67° C | 36% | 1020 hPa | 0 mm | - | 130 W/m² | - |
| 1787843777 | 26.67° C | 36% | 1019.9 hPa | 0 mm | - | 140 W/m² | - |
| 1787843475 | 26.67° C | 36% | 1019.9 hPa | 0 mm | - | 151 W/m² | - |
| 1787843173 | 26.67° C | 37% | 1019.9 hPa | 0 mm | - | 162 W/m² | - |
| 1787842870 | 26.67° C | 37% | 1020 hPa | 0 mm | - | 175 W/m² | - |
| 1787842568 | 25.56° C | 38% | 1019.9 hPa | 0 mm | - | 186 W/m² | - |
| 1787842266 | 25.56° C | 38% | 1019.9 hPa | 0 mm | - | 201 W/m² | - |
| 1787841963 | 26.67° C | 36% | 1019.8 hPa | 0 mm | - | 211 W/m² | - |
| 1787841661 | 26.67° C | 36% | 1019.7 hPa | 0 mm | - | 226 W/m² | - |
| 1787841359 | 26.67° C | 37% | 1019.7 hPa | 0 mm | - | 240 W/m² | - |
| 1787841056 | 26.67° C | 36% | 1019.6 hPa | 0 mm | - | 251 W/m² | - |
| 1787840754 | 26.67° C | 37% | 1019.8 hPa | 0 mm | - | 266 W/m² | - |
| 1787840454 | 25.56° C | 37% | 1019.8 hPa | 0 mm | - | 277 W/m² | - |
| 1787840152 | 26.67° C | 37% | 1019.8 hPa | 0 mm | - | 296 W/m² | - |
| 1787839847 | 25.56° C | 38% | 1019.7 hPa | 0 mm | - | 304 W/m² | - |
| 1787839545 | 25.56° C | 38% | 1019.7 hPa | 0 mm | - | 318 W/m² | - |
| 1787839243 | 25.56° C | 39% | 1019.8 hPa | 0 mm | - | 331 W/m² | - |
| 1787838941 | 25.56° C | 40% | 1019.8 hPa | 0 mm | - | 335 W/m² | - |
| 1787838336 | 25.56° C | 38% | 1019.8 hPa | 0 mm | - | 370 W/m² | - |
| 1787837732 | 26.67° C | 37% | 1019.7 hPa | 0 mm | - | 393 W/m² | - |
| 1787837429 | 25.56° C | 38% | 1019.8 hPa | 0 mm | - | 418 W/m² | - |
| 1787837128 | 25.56° C | 39% | 1020 hPa | 0 mm | - | 421 W/m² | - |
| 1787836825 | 25.56° C | 39% | 1019.9 hPa | 0 mm | - | 432 W/m² | - |
| 1787836527 | 25.56° C | 40% | 1020 hPa | 0 mm | - | 447 W/m² | - |
| 1787836221 | 25.56° C | 40% | 1020.1 hPa | 0 mm | - | 450 W/m² | - |
* Rain latest hour (hover to see other rain measurements)
** Current wind speed in m/s (hover to see current wind gust speed)